Starlink 5544

operational
NORAD ID: 55757 Int'l Des: 2023-028 Owner: SPXS Country: US Constellation: starlink
LEOCIRCULAR

关于 Starlink 5544

正在加载描述...

实时位置

正在加载3D地球...

即将过境

高度历史

Altitude vs Time

uPlot chart will show altitude changes over time

两行轨道根数

1 55757U 23028S 25353.99153253 -.00001551 00000-0 -12221-3 0 9994
2 55757 70.0015 85.3437 0002950 275.3649 84.7173 14.98323164154108
Epoch: Dec 19, 2025 • Age: 12 hours

当前状态

高度 589.9 km
速度 7.57 km/s
星下点 -51.55°S, 20.9°E
发射日期 Mar 3, 2023
运行时间 2.7 years
类型 internet

技术详情

分类 Payload
质量 305.00 kg
干质量 290.00 kg
总质量 305.00 kg
长度 0.20 m
直径 2.80 m
跨度 9.00 m
形状 Box + pan
制造商 SPXS
平台类型 Starlink
阶段状态 In Orbit
所有者/国家 SPXS/US

大型星座

Loading constellations...